This is the latest recevied weather packets stored in our database for station/object S56VIL-11. If no packets are shown the sender has not sent any weather packets the latest 10 day(s).
| Time | Temp. | Humidity | Pressure | Rain* | Wind** | Luminosity | Snow |
|---|---|---|---|---|---|---|---|
| 1777580691 | 6.11° C | 57% | 1037 hPa | - | - | - | - |
| 1777579788 | 6.67° C | 57% | 1036.7 hPa | - | - | - | - |
| 1777578891 | 6.67° C | 57% | 1036.4 hPa | - | - | - | - |
| 1777577987 | 6.67° C | 57% | 1036.3 hPa | - | - | - | - |
| 1777577090 | 6.67° C | 57% | 1036.1 hPa | - | - | - | - |
| 1777576187 | 7.22° C | 57% | 1035.9 hPa | - | - | - | - |
| 1777575290 | 7.22° C | 57% | 1035.7 hPa | - | - | - | - |
| 1777574386 | 7.22° C | 57% | 1035.4 hPa | - | - | - | - |
| 1777573489 | 7.78° C | 57% | 1035.3 hPa | - | - | - | - |
| 1777572586 | 7.78° C | 57% | 1035.2 hPa | - | - | - | - |
| 1777571687 | 8.33° C | 58% | 1035 hPa | - | - | - | - |
| 1777570786 | 8.89° C | 57% | 1034.9 hPa | - | - | - | - |
| 1777569889 | 9.44° C | 58% | 1034.9 hPa | - | - | - | - |
| 1777568985 | 10° C | 58% | 1034.7 hPa | - | - | - | - |
| 1777568088 | 11.67° C | 58% | 1034.8 hPa | - | - | - | - |
| 1777567192 | 13.89° C | 58% | 1034.6 hPa | - | - | - | - |
| 1777566288 | 15° C | 58% | 1034.4 hPa | - | - | - | - |
| 1777565385 | 15° C | 58% | 1034.4 hPa | - | - | - | - |
| 1777564488 | 14.44° C | 58% | 1034.3 hPa | - | - | - | - |
| 1777563584 | 13.89° C | 58% | 1034.3 hPa | - | - | - | - |
| 1777562687 | 14.44° C | 58% | 1034.3 hPa | - | - | - | - |
| 1777561784 | 13.33° C | 59% | 1034.3 hPa | - | - | - | - |
| 1777560887 | 12.78° C | 58% | 1034.3 hPa | - | - | - | - |
| 1777559984 | 13.33° C | 59% | 1034.3 hPa | - | - | - | - |
| 1777559086 | 14.44° C | 59% | 1034.4 hPa | - | - | - | - |
* Rain since midnight (hover to see other rain measurements)
** Current wind speed in m/s (hover to see current wind gust speed)